Wind_Speed
42 40 38 37 36 36 34 34 35 35 35 35 35 35 36 35 34 33 32 31 30 29 29 28 28 27 26 24 22 23 23 21 20 19 18 18 18 18 18 17 14 13
43 41 39 37 36 36 35 35 35 36 36 37 37 37 36 35 35 35 34 33 31 30 30 29 29 28 28 26 24 25 25 23 22 21 19 19 19 18 18 17 15 14
42 41 39 38 37 37 36 35 35 36 37 37 38 37 37 36 35 35 35 34 33 32 31 30 30 30 29 27 26 27 28 26 24 22 21 20 19 18 18 17 16 16
42 41 40 39 39 38 37 36 35 35 36 37 38 38 37 36 36 36 36 36 35 34 33 32 31 31 31 29 27 28 29 28 25 24 23 22 20 19 18 18 18 18
43 41 40 39 39 38 37 37 36 36 37 37 38 38 37 37 36 36 36 37 37 36 34 33 33 33 32 31 30 29 31 30 27 25 24 24 23 21 20 20 20 20
42 41 41 40 39 38 37 38 38 37 37 38 37 37 38 38 37 37 37 37 38 38 36 35 34 34 34 33 32 31 32 31 29 27 26 26 25 24 23 21 21 20
41 41 41 40 39 39 39 39 39 38 38 37 37 37 37 38 38 38 39 38 39 39 38 36 36 35 35 35 34 33 33 32 31 29 27 26 27 26 25 23 21 20
41 41 41 41 40 40 40 40 40 39 38 37 36 37 37 38 38 39 39 39 39 39 39 38 37 37 36 36 36 35 34 33 33 31 29 27 27 28 27 25 23 21
41 41 41 41 41 41 41 41 40 40 38 37 37 37 37 38 39 39 39 39 40 40 39 39 38 38 37 37 37 36 35 35 34 32 31 30 29 30 29 27 25 24
41 41 41 41 42 41 42 42 41 39 38 37 37 36 37 38 38 38 38 39 40 40 40 39 39 39 38 38 39 38 37 35 34 33 32 31 31 31 30 29 28 27
41 40 41 42 42 42 42 42 41 39 38 37 36 36 36 37 37 38 38 39 41 41 40 40 39 39 39 39 40 39 38 36 34 33 33 33 32 32 32 31 29 29
40 41 41 41 42 42 41 41 40 39 38 37 37 36 36 36 37 38 39 40 41 41 40 40 40 40 40 40 40 39 38 36 34 34 35 35 34 33 32 31 30 30
41 42 41 41 42 42 41 40 40 39 38 38 38 37 37 36 36 38 39 40 41 41 41 41 40 41 41 41 41 39 36 35 35 35 36 36 35 33 31 31 31 30
42 41 41 41 42 41 41 40 40 40 39 38 38 37 38 38 37 38 38 39 40 41 41 41 40 41 42 41 40 38 35 35 36 36 36 34 33 32 32 31 31 30
40 40 40 40 40 40 41 40 39 39 39 38 38 38 38 38 38 38 37 38 39 40 41 41 41 43 43 42 41 38 36 36 37 36 34 32 31 32 32 31 30 30
39 39 39 39 40 40 40 39 39 38 38 39 39 38 38 38 37 38 38 38 39 40 40 41 42 43 43 43 43 39 37 37 37 34 31 31 32 33 32 32 32 31
39 39 39 40 41 40 39 39 39 38 38 39 38 38 38 38 37 37 38 39 40 40 41 42 43 44 43 43 43 40 38 38 35 32 31 32 33 33 33 32 32 31
39 39 40 40 40 40 39 39 38 38 38 38 38 39 39 38 38 38 39 40 40 41 42 43 43 42 42 44 43 40 39 38 34 32 34 34 33 33 33 31 30 30
40 39 40 41 41 40 39 38 38 39 39 39 39 39 38 38 39 39 39 40 40 41 43 43 41 41 42 43 42 39 39 39 36 36 35 34 32 32 31 30 28 28
39 40 42 42 41 39 38 38 39 40 40 40 38 37 38 39 39 39 40 40 41 42 42 40 39 40 42 42 40 39 39 41 40 36 31 30 30 30 31 30 29 28
39 40 41 40 39 38 38 39 40 40 40 39 38 38 40 40 39 39 40 41 41 41 39 38 38 40 41 41 40 39 40 42 41 34 28 27 29 28 28 29 28 27
39 40 39 38 37 37 38 40 40 40 40 39 38 38 38 38 38 39 40 40 41 40 38 37 38 39 41 41 38 38 40 41 40 36 31 29 28 27 27 27 26 26
39 38 37 36 36 37 39 40 40 40 39 39 38 37 36 37 38 38 39 39 39 38 37 37 37 39 40 39 37 37 38 39 40 38 34 31 29 28 27 26 25 25
39 38 37 37 37 38 40 39 39 39 38 38 38 37 37 38 38 37 37 38 38 38 38 37 37 39 40 38 36 37 38 37 38 37 36 35 34 31 29 28 26 25
39 39 39 39 40 41 40 39 39 38 37 37 37 37 37 37 37 36 36 36 36 37 38 38 37 38 38 36 34 36 39 38 35 34 35 37 35 33 31 29 27 26
39 40 42 42 42 42 41 40 39 37 36 36 37 37 36 35 35 35 35 35 35 36 37 37 37 38 38 35 33 35 40 37 32 32 35 35 34 33 31 29 27 25
Wind_Direction
212 212 212 213 215 217 217 215 215 214 215 215 216 220 222 223 223 222 221 223 224 226 227 227 226 226 226 227 226 223 221 221 222 226 229 228 224 218 212 210 211 212
211 211 212 213 214 217 218 218 217 215 215 216 218 221 223 223 223 222 222 223 224 226 227 227 226 226 226 226 225 222 221 222 224 229 231 227 222 218 216 214 211 210
210 210 210 211 213 215 218 219 219 218 217 218 218 220 222 224 224 223 223 223 224 226 227 227 227 227 228 227 225 223 222 223 225 229 231 228 224 223 221 219 214 210
210 210 210 211 213 215 216 217 219 219 218 219 219 220 222 223 224 224 223 222 224 226 226 227 228 228 228 227 226 225 224 225 227 230 232 229 226 228 227 223 219 214
210 211 211 211 212 214 215 216 218 219 219 219 219 220 221 222 224 223 222 221 222 225 226 226 228 229 228 227 227 227 225 225 227 229 232 231 229 231 231 228 223 219
210 211 211 212 212 213 213 215 218 219 220 220 220 220 221 221 222 223 223 222 222 223 224 225 228 229 228 227 228 228 227 227 226 226 229 231 231 232 233 232 229 225
209 210 211 212 212 213 214 216 218 219 220 221 220 221 220 220 221 222 223 223 223 223 222 224 228 229 229 227 227 229 228 228 227 225 226 231 232 232 233 232 231 230
209 209 210 211 212 213 215 216 218 220 220 220 221 221 221 220 220 221 222 223 224 224 222 223 227 230 230 228 227 228 228 228 227 226 226 229 232 232 232 231 231 232
209 209 209 210 211 212 215 216 218 219 219 220 221 221 221 221 221 221 222 223 223 223 223 223 226 229 229 229 228 229 229 228 228 226 226 229 231 231 230 229 230 231
209 208 208 209 210 212 214 216 217 218 218 219 220 221 221 221 222 221 221 221 222 222 222 223 225 227 228 229 229 230 230 229 228 227 227 229 231 231 229 229 229 230
208 208 208 209 210 212 214 215 216 217 218 219 218 219 220 221 221 220 220 220 221 222 222 223 225 227 228 229 230 230 230 229 228 228 229 230 231 231 229 228 229 231
208 208 209 209 210 212 213 214 215 216 216 218 218 218 219 219 219 219 220 221 222 223 223 224 226 227 229 230 231 230 229 228 228 229 230 232 232 231 229 229 230 232
208 209 209 209 211 212 213 214 214 215 215 217 218 218 218 219 219 220 220 222 223 224 224 225 226 227 229 230 231 230 227 226 228 229 231 232 233 233 232 231 232 233
208 209 209 210 212 212 213 214 213 214 215 215 217 218 218 219 219 220 221 222 224 225 225 226 226 227 228 228 229 228 226 226 228 229 230 230 231 234 235 234 234 235
207 208 209 210 212 212 213 213 213 213 214 214 216 217 218 219 220 221 221 222 224 225 226 226 226 227 228 227 227 226 224 226 229 230 229 228 229 233 235 236 236 236
206 207 208 210 211 212 213 212 213 213 213 214 215 216 217 218 219 221 221 222 224 225 225 225 226 228 228 228 228 225 223 226 228 229 228 228 230 232 233 235 235 236
204 205 207 209 211 212 212 212 212 212 213 214 214 215 216 217 218 219 220 222 224 225 225 226 227 228 228 229 229 225 224 226 226 226 228 230 230 231 232 233 233 233
203 203 206 209 210 211 211 211 211 212 213 213 213 214 214 215 216 218 219 222 223 225 226 227 228 228 228 229 228 224 225 227 224 224 229 230 229 230 232 233 232 232
202 202 205 208 210 210 210 210 210 211 212 212 213 213 213 214 216 217 219 221 222 224 227 228 228 228 229 229 226 222 223 226 226 226 229 229 228 229 232 233 233 233
201 202 205 208 209 208 208 208 210 211 212 212 212 212 212 214 215 216 218 220 222 224 226 228 228 229 229 229 225 220 219 225 229 227 226 228 230 230 232 235 235 234
201 203 206 208 207 205 206 208 210 211 212 211 211 211 213 214 215 216 219 220 222 224 225 227 228 229 230 229 224 217 216 223 228 228 226 230 233 232 234 236 236 236
203 204 206 207 205 204 206 209 210 211 211 210 211 212 214 215 215 217 219 220 223 224 224 226 229 229 231 230 223 216 213 216 222 227 229 231 234 236 238 239 238 238
204 204 205 206 204 205 207 209 210 211 210 209 210 211 213 214 216 217 219 221 222 222 222 225 227 229 231 230 222 213 207 208 215 221 227 233 239 243 243 241 239 238
204 203 204 205 205 207 209 210 210 211 210 209 209 211 213 215 216 218 220 221 222 222 222 223 226 229 231 229 221 209 202 207 214 213 218 231 240 245 245 242 239 237
204 203 204 205 207 209 209 209 210 210 211 210 210 212 214 216 216 218 219 221 222 222 223 223 225 229 230 226 219 207 201 209 213 206 210 225 234 237 240 239 236 234
204 204 205 206 208 210 209 208 209 209 209 209 210 212 214 216 216 217 219 220 221 221 223 222 223 227 228 223 217 207 201 204 207 204 211 222 226 227 230 230 230 230
Height
777 780 783 785 788 790 792 794 795 796 798 799 800 802 803 805 807 810 811 812 814 815 817 818 820 821 823 824 824 825 826 827 828 829 830 831 832 832 833 834 835 836
773 776 779 782 785 787 790 791 793 794 795 796 798 799 801 803 805 807 809 811 812 813 815 816 818 819 821 821 822 823 824 825 826 827 828 829 830 831 832 833 834 835
770 773 776 779 781 784 786 789 791 792 793 794 795 797 799 801 803 804 807 808 810 811 813 815 816 817 818 819 821 821 822 823 824 825 827 828 829 831 831 832 833 834
767 770 772 775 777 780 783 786 788 789 791 792 793 795 797 798 800 802 804 806 808 809 811 812 814 815 816 818 819 819 820 821 822 824 826 827 828 829 830 831 832 832
763 766 769 772 774 777 780 782 784 786 788 789 790 792 794 796 798 799 801 803 805 807 808 810 811 813 814 816 816 817 818 819 820 822 824 825 826 827 828 829 829 830
760 763 766 769 771 774 776 778 780 782 784 786 788 790 791 793 795 797 798 800 802 804 806 807 809 810 812 813 814 815 815 817 818 820 821 823 824 825 826 827 828 829
756 759 762 765 768 770 772 774 776 778 781 783 785 787 788 790 792 793 795 797 799 800 802 805 806 807 809 810 811 812 813 814 816 817 819 820 822 823 824 825 827 827
752 755 758 761 764 766 768 770 772 774 777 780 782 784 786 787 789 791 793 794 796 797 800 802 803 804 806 807 808 809 810 812 814 815 817 818 820 821 822 824 825 826
749 751 754 757 759 761 763 765 768 770 774 777 779 781 783 785 786 788 790 791 793 794 796 799 800 801 803 804 805 806 807 809 811 813 814 816 817 818 820 822 823 823
745 747 750 752 754 757 759 761 764 767 770 773 775 778 780 782 784 785 787 789 790 791 793 795 796 798 799 801 802 803 805 807 809 811 812 812 813 814 817 818 819 820
741 744 746 747 750 752 754 757 760 763 766 769 772 775 777 779 781 783 784 785 786 787 790 791 793 795 796 797 798 800 802 805 807 808 809 809 810 811 813 815 817 818
737 739 741 744 747 748 751 754 757 760 763 766 768 771 773 776 777 779 780 782 783 784 786 788 790 791 792 794 795 797 800 802 804 805 805 806 806 808 810 813 814 816
732 734 737 741 743 745 748 751 753 756 759 761 765 767 770 772 774 775 777 778 780 781 783 785 786 788 789 790 792 794 797 800 801 801 802 803 805 807 809 810 812 813
727 731 734 737 740 743 745 747 750 752 755 758 761 763 765 767 769 772 773 775 777 778 780 782 783 784 785 787 789 792 795 797 797 797 799 801 804 806 807 808 809 811
723 728 731 734 737 739 741 744 746 749 751 754 756 758 761 763 766 768 770 772 773 775 776 778 779 779 780 783 785 788 792 793 793 795 798 801 803 803 804 806 807 808
720 724 727 730 733 735 738 740 743 746 748 750 752 754 757 759 762 764 766 768 769 771 772 774 774 774 776 779 781 785 788 789 790 794 797 798 799 800 802 803 804 805
715 719 722 725 727 730 734 736 739 742 744 746 748 750 752 755 758 760 761 764 765 766 768 768 768 770 772 774 778 783 786 787 789 793 794 795 795 797 798 799 800 802
710 713 717 719 722 726 729 732 736 738 740 742 744 745 748 750 752 754 757 759 760 762 763 763 764 766 768 770 774 780 783 784 786 789 789 790 791 793 795 797 798 800
704 708 711 714 717 720 725 729 732 733 735 737 739 741 744 746 747 749 752 754 755 757 757 758 761 762 764 766 771 777 781 781 782 783 784 786 788 791 793 795 796 798
700 702 705 708 711 716 721 724 726 727 729 732 735 738 740 741 742 745 747 748 750 751 753 755 757 758 759 762 767 773 777 777 778 780 783 785 786 788 790 792 794 795
695 697 700 703 708 712 716 718 720 721 724 727 730 732 734 735 738 740 742 743 745 747 749 751 753 754 755 758 763 768 772 775 778 780 782 784 785 786 787 789 791 792
690 693 696 700 704 708 710 712 714 716 719 722 725 727 729 732 734 736 737 739 741 743 746 747 748 749 751 754 759 764 768 773 776 779 780 782 783 784 785 786 788 790
686 689 693 697 701 703 704 706 709 711 715 718 721 723 725 727 729 730 732 734 736 739 741 743 744 745 747 750 755 761 766 771 774 776 779 780 782 784 784 784 785 787
680 685 689 693 696 697 699 702 705 708 711 713 716 718 720 722 724 726 729 730 732 734 737 739 740 741 743 747 752 757 763 768 770 773 777 779 780 782 783 782 783 785
676 680 683 686 689 690 693 697 701 704 707 710 712 714 716 718 720 723 725 726 728 731 733 735 736 738 740 744 749 753 758 763 767 770 773 774 776 778 780 779 781 782
671 674 677 679 681 684 688 692 696 700 703 706 708 710 712 715 717 718 720 721 724 726 728 731 732 734 737 741 746 749 753 758 764 767 768 769 772 775 776 777 778 780